This demonstration page uses our WeatherBlox Daily Observations layout. Learn more.

40.92945, -100.16068

Hourly Observations for January 22, 2018

Temp ( °F °C ) Dew Point ( °F °C ) Humidity (%) Winds ( mph kmh ) Pressure ( in mb ) Visibility ( mi km ) Precip ( " mm )
12:15 am 00:15 Cloudy with Light Wintry Mix 33 0.5 31 -0.6 92 92 NNE 12 19 29.77 1008 2.5 4.02335 0.01 0.254
12:35 am 00:35 Cloudy with Light Wintry Mix 33 0.5 31 -0.7 92 92 NNE 13 20 29.71 1006 3 4.82802 0.01 0.254
12:55 am 00:55 Cloudy with Light Snow 33 0.5 31 -0.7 92 92 NNE 14 22 29.71 1006 4 6.43736 0.01 0.254
1:15 am 01:15 Cloudy with Light Snow 33 0.5 31 -0.8 91 91 NNE 14 22 29.71 1006 3 4.82802 0 0
1:35 am 01:35 Cloudy with Light Snow 33 0.3 30 -1 91 91 NNE 16 26 29.71 1006 3 4.82802 0 0
1:55 am 01:55 Cloudy with Light Wintry Mix 33 0.3 30 -1 91 91 NNE 15 24 29.71 1006 4 6.43736 0 0
2:15 am 02:15 Cloudy with Light Wintry Mix 33 0.5 30 -1 90 90 N 15 24 29.71 1006 4 6.43736 0 0
2:35 am 02:35 Cloudy with Light Wintry Mix 33 0.5 30 -1 90 90 NNE 15 24 29.71 1006 5 8.0467 0 0
2:55 am 02:55 Cloudy with Mist and Fog 33 0.5 30 -1.2 89 89 NNE 15 24 29.77 1008 4 6.43736 0 0
3:15 am 03:15 Cloudy with Mist and Fog 33 0.3 30 -1.3 89 89 N 12 19 29.77 1008 4 6.43736 0 0
3:35 am 03:35 Cloudy with Light Snow 32 0 29 -1.5 90 90 N 14 22 29.77 1008 1.75 2.816345 0 0
3:55 am 03:55 Cloudy with Light Snow 32 -0.2 29 -1.5 91 91 N 13 20 29.77 1008 1 1.60934 0 0
4:15 am 04:15 Cloudy with Light Snow 31 -0.3 29 -1.5 92 92 N 16 26 29.77 1008 1 1.60934 0 0
4:35 am 04:35 Cloudy 31 -0.5 29 -1.5 93 93 N 16 26 29.77 1008 N/A 0 0
4:55 am 04:55 Cloudy 31 -0.5 29 -1.6 92 92 N 16 26 29.8 1009 N/A 0 0
5:15 am 05:15 Cloudy 31 -0.7 29 -1.8 92 92 NNW 16 26 29.8 1009 N/A 0.01 0.254
5:35 am 05:35 Cloudy 31 -0.7 29 -1.8 92 92 N 16 26 29.8 1009 N/A 0.01 0.254
5:55 am 05:55 Cloudy 31 -0.6 29 -1.6 93 93 NNW 18 30 29.8 1009 N/A 0.01 0.254
6:15 am 06:15 Cloudy 31 -0.6 29 -1.6 93 93 NNW 18 30 29.8 1009 N/A 0 0
6:35 am 06:35 Cloudy 31 -0.6 29 -1.8 92 92 NNW 18 30 29.83 1010 N/A 0 0
6:55 am 06:55 Cloudy 30 -1 28 -2.2 92 92 NNW 17 28 29.83 1010 N/A 0 0
7:15 am 07:15 Cloudy 30 -1 28 -2.2 92 92 NNW 18 30 29.83 1010 N/A 0 0
7:35 am 07:35 Cloudy 30 -1 28 -2.1 92 92 NNW 18 30 29.83 1010 N/A 0 0
7:55 am 07:55 Cloudy 30 -1 28 -2.1 92 92 NNW 16 26 29.85 1011 N/A 0 0
8:15 am 08:15 Cloudy 30 -1 28 -2.2 92 92 NNW 15 24 29.85 1011 N/A 0 0
8:35 am 08:35 Cloudy 30 -1.2 28 -2.5 91 91 NNW 16 26 29.85 1011 N/A 0.01 0.254
8:55 am 08:55 Cloudy 29 -1.5 27 -2.7 92 92 NNW 17 28 29.85 1011 N/A 0.01 0.254
9:15 am 09:15 Cloudy 29 -1.7 26 -3.1 90 90 NNW 13 20 29.88 1012 N/A 0 0
9:35 am 09:35 undefined 30 -1.2 26 -3.3 86 86 NW 13 20 29.88 1012 N/A 0 0
9:55 am 09:55 Cloudy 30 -1 26 -3.6 83 83 NW 13 20 29.88 1012 N/A 0 0
10:15 am 10:15 Cloudy 30 -1.1 26 -3.6 83 83 NW 15 24 29.88 1012 N/A 0 0
10:35 am 10:35 Cloudy 30 -1.1 25 -3.7 83 83 NNW 16 26 29.88 1012 N/A 0 0
10:55 am 10:55 Cloudy 30 -1.2 25 -4.1 81 81 NW 16 26 29.88 1012 N/A 0 0
11:15 am 11:15 Cloudy 30 -1.1 25 -3.7 83 83 NW 16 26 29.94 1014 N/A 0 0
11:35 am 11:35 Cloudy 30 -1 26 -3.6 83 83 NW 17 28 29.91 1013 N/A 0 0
11:55 am 11:55 undefined 30 -1 26 -3.5 83 83 NW 16 26 29.91 1013 N/A 0 0
12:15 pm 12:15 undefined 30 -0.9 26 -3.5 83 83 NW 17 28 29.91 1013 N/A 0 0
12:35 pm 12:35 Cloudy 31 -0.7 26 -3.4 82 82 NW 16 26 29.88 1012 N/A 0 0
12:55 pm 12:55 Cloudy 31 -0.5 26 -3.3 82 82 NW 15 24 29.88 1012 N/A 0 0
1:15 pm 13:15 Partly Cloudy 31 -0.3 26 -3.4 80 80 NNW 17 28 29.88 1012 N/A 0 0
2:35 pm 14:35 Mostly Cloudy 31 -0.4 26 -3.6 79 79 NNW 17 28 29.91 1013 N/A 0 0
2:55 pm 14:55 Partly Cloudy 32 -0.2 25 -3.9 76 76 NNW 17 28 29.91 1013 N/A 0 0
3:15 pm 15:15 Sunny 32 -0.2 25 -3.8 77 77 NNW 14 22 29.94 1014 N/A 0 0
3:35 pm 15:35 Sunny 32 -0.1 25 -4 75 75 NNW 15 24 29.94 1014 N/A 0 0
3:55 pm 15:55 Sunny 32 0 25 -4.1 74 74 NNW 14 22 29.97 1015 N/A 0 0
4:15 pm 16:15 Sunny 32 0.1 24 -4.3 73 73 NNW 15 24 29.97 1015 N/A 0 0
4:35 pm 16:35 Sunny 32 -0.1 24 -4.7 71 71 NNW 15 24 29.97 1015 N/A 0 0
4:55 pm 16:55 Sunny 31 -0.3 23 -5 71 71 NNW 16 26 30.03 1017 N/A 0 0
5:15 pm 17:15 Sunny 31 -0.5 23 -5.2 71 71 NW 15 24 30.03 1017 N/A 0 0
5:35 pm 17:35 Sunny 30 -1 22 -5.5 72 72 NW 15 24 30.03 1017 N/A 0 0
5:55 pm 17:55 Clear 29 -1.5 22 -5.8 73 73 NW 13 20 30.06 1018 N/A 0 0
6:15 pm 18:15 Clear 28 -2 21 -6.1 74 74 NW 12 19 30.06 1018 N/A 0 0
6:35 pm 18:35 Clear 27 -3 20 -6.6 76 76 WNW 10 17 30.12 1020 N/A 0 0
6:55 pm 18:55 Clear 26 -3.5 19 -7 77 77 NW 9 15 30.12 1020 N/A 0 0
7:15 pm 19:15 Clear 25 -4 19 -7.5 77 77 NW 9 15 30.12 1020 N/A 0 0
7:35 pm 19:35 Clear 25 -4.1 19 -7.5 77 77 NW 10 17 30.12 1020 N/A 0 0
7:55 pm 19:55 Clear 24 -4.7 18 -8 78 78 WNW 10 17 30.15 1021 N/A 0 0
8:15 pm 20:15 Clear 23 -5 17 -8.1 79 79 WNW 10 17 30.15 1021 N/A 0 0
8:35 pm 20:35 Clear 23 -5.1 17 -8.4 78 78 WNW 12 19 30.15 1021 N/A 0 0
8:55 pm 20:55 Clear 22 -5.6 16 -8.8 78 78 WNW 13 20 30.18 1022 N/A 0 0
9:15 pm 21:15 Clear 22 -5.7 16 -9 78 78 WNW 12 19 30.18 1022 N/A 0 0
9:35 pm 21:35 Clear 21 -6 16 -9.1 79 79 WNW 10 17 30.18 1022 N/A 0 0
9:55 pm 21:55 Clear 22 -5.8 15 -9.2 77 77 WNW 14 22 30.21 1023 N/A 0 0
10:15 pm 22:15 Clear 22 -5.8 15 -9.4 76 76 WNW 15 24 30.21 1023 N/A 0 0
10:35 pm 22:35 Clear 21 -6.2 15 -9.7 77 77 WNW 15 24 30.21 1023 N/A 0 0
10:55 pm 22:55 Clear 20 -6.6 14 -10 77 77 WNW 13 20 30.21 1023 N/A 0 0
11:15 pm 23:15 Clear 19 -7.1 13 -10.5 77 77 WNW 9 15 30.21 1023 N/A 0 0
11:35 pm 23:35 Clear 18 -7.7 12 -11 77 77 WNW 9 15 30.21 1023 N/A 0 0
11:55 pm 23:55 Clear 17 -8.5 11 -11.5 79 79 WNW 13 20 30.24 1024 N/A 0 0

Powered by AerisWeather